Location: ????? ??????
(37.8317°N, 23.8750°E)
Time: 13:26:50
(UTC+00:00)

ISS - Pass Details

Date: 20 January 2021
Orbit: 417 x 422 km, 51.6° (Epoch: 04 March)

Event Time Altitude Azimuth Distance (km) Brightness Sun altitude
Rises 16:01:27 0° 221° (SW) 2,355 1.3 -5.7°
Reaches altitude 10° 16:03:33 10° 217° (SW) 1,496 0.1 -6.1°
Maximum altitude 16:06:51 59° 137° (SE) 491 -3.5 -6.7°
Drops below altitude 10° 16:10:11 10° 57° (ENE) 1,507 -1.6 -7.3°
Enters shadow 16:10:22 - 57° (ENE) 1,580 -1.5 -7.3°
